contact:dominique.lefevre@mio.osupytheas.fr, maurice.libes@osupytheas.fr, didier.mallarino@osupytheas.fr
Project:EMSO http://www.emso-fr.org/EMSO-France
Depth: 2436.0 m
Title:EMSO Ligure Ouest : Data MII capteur MICROCAT
DateTime_Computer,Latitude,Longitude,Temperature,Conductivity,Pressure,DateTime_Instrument
DateTime_Computer,Latitude,Longitude,degC,S m-1,dbar,DateTime_Instrument
2023-11-11T00:02:08Z,42.805,6.029,13.3040,4.60115,2470.67,2023-11-11T02:04:35Z
2023-11-11T00:05:11Z,42.805,6.029,13.3041,4.60115,2470.67,2023-11-11T02:07:38Z
2023-11-11T00:08:14Z,42.805,6.029,13.3041,4.60112,2470.707,2023-11-11T02:10:41Z
2023-11-11T00:11:17Z,42.805,6.029,13.3039,4.60114,2470.646,2023-11-11T02:13:44Z
2023-11-11T00:14:20Z,42.805,6.029,13.3037,4.60112,2470.67,2023-11-11T02:16:47Z
2023-11-11T00:17:23Z,42.805,6.029,13.3043,4.60113,2470.684,2023-11-11T02:19:50Z
2023-11-11T00:20:26Z,42.805,6.029,13.3038,4.60114,2470.67,2023-11-11T02:22:53Z
2023-11-11T00:23:29Z,42.805,6.029,13.3040,4.60114,2470.661,2023-11-11T02:25:56Z
2023-11-11T00:26:32Z,42.805,6.029,13.3039,4.60112,2470.67,2023-11-11T02:28:59Z
2023-11-11T00:29:36Z,42.805,6.029,13.3041,4.60113,2470.624,2023-11-11T02:32:02Z
2023-11-11T00:32:39Z,42.805,6.029,13.3044,4.60114,2470.67,2023-11-11T02:35:05Z
2023-11-11T00:35:42Z,42.805,6.029,13.3039,4.60115,2470.684,2023-11-11T02:38:08Z
2023-11-11T00:38:45Z,42.805,6.029,13.3039,4.60115,2470.693,2023-11-11T02:41:12Z
2023-11-11T00:41:48Z,42.805,6.029,13.3036,4.60114,2470.67,2023-11-11T02:44:15Z
2023-11-11T00:44:51Z,42.805,6.029,13.3039,4.60116,2470.646,2023-11-11T02:47:18Z
2023-11-11T00:47:54Z,42.805,6.029,13.3038,4.60116,2470.646,2023-11-11T02:50:21Z
2023-11-11T00:50:57Z,42.805,6.029,13.3045,4.60116,2470.67,2023-11-11T02:53:24Z
2023-11-11T00:54:00Z,42.805,6.029,13.3043,4.60116,2470.67,2023-11-11T02:56:27Z
2023-11-11T00:57:03Z,42.805,6.029,13.3041,4.60113,2470.67,2023-11-11T02:59:30Z
2023-11-11T01:00:06Z,42.805,6.029,13.3039,4.60117,2470.707,2023-11-11T03:02:33Z
2023-11-11T01:03:09Z,42.805,6.029,13.3039,4.60115,2470.707,2023-11-11T03:05:36Z
2023-11-11T01:06:12Z,42.805,6.029,13.3038,4.60115,2470.684,2023-11-11T03:08:39Z
2023-11-11T01:09:16Z,42.805,6.029,13.3038,4.60116,2470.67,2023-11-11T03:11:42Z
2023-11-11T01:12:19Z,42.805,6.029,13.3039,4.60114,2470.67,2023-11-11T03:14:45Z
2023-11-11T01:15:22Z,42.805,6.029,13.3039,4.60117,2470.67,2023-11-11T03:17:49Z
2023-11-11T01:18:25Z,42.805,6.029,13.3039,4.60114,2470.684,2023-11-11T03:20:52Z
2023-11-11T01:21:28Z,42.805,6.029,13.3041,4.60114,2470.67,2023-11-11T03:23:55Z
2023-11-11T01:24:31Z,42.805,6.029,13.3042,4.60119,2470.67,2023-11-11T03:26:58Z
2023-11-11T01:27:34Z,42.805,6.029,13.3040,4.60114,2470.693,2023-11-11T03:30:01Z
2023-11-11T01:30:37Z,42.805,6.029,13.3039,4.60115,2470.693,2023-11-11T03:33:04Z
2023-11-11T01:33:40Z,42.805,6.029,13.3040,4.60114,2470.67,2023-11-11T03:36:07Z
2023-11-11T01:36:43Z,42.805,6.029,13.3043,4.60114,2470.693,2023-11-11T03:39:10Z
2023-11-11T01:39:46Z,42.805,6.029,13.3040,4.60114,2470.67,2023-11-11T03:42:13Z
2023-11-11T01:42:49Z,42.805,6.029,13.3044,4.60115,2470.684,2023-11-11T03:45:16Z
2023-11-11T01:45:53Z,42.805,6.029,13.3039,4.60114,2470.646,2023-11-11T03:48:19Z
2023-11-11T01:48:56Z,42.805,6.029,13.3039,4.60117,2470.693,2023-11-11T03:51:22Z
2023-11-11T01:51:59Z,42.805,6.029,13.3041,4.60120,2470.684,2023-11-11T03:54:26Z
2023-11-11T01:55:02Z,42.805,6.029,13.3038,4.60114,2470.693,2023-11-11T03:57:29Z
2023-11-11T01:58:05Z,42.805,6.029,13.3039,4.60118,2470.707,2023-11-11T04:00:32Z
2023-11-11T02:01:08Z,42.805,6.029,13.3041,4.60118,2470.693,2023-11-11T04:03:35Z
2023-11-11T02:04:11Z,42.805,6.029,13.3039,4.60114,2470.693,2023-11-11T04:06:38Z
2023-11-11T02:07:14Z,42.805,6.029,13.3037,4.60114,2470.684,2023-11-11T04:09:41Z
2023-11-11T02:10:17Z,42.805,6.029,13.3039,4.60116,2470.717,2023-11-11T04:12:44Z
2023-11-11T02:13:20Z,42.805,6.029,13.3041,4.60115,2470.707,2023-11-11T04:15:47Z
2023-11-11T02:16:23Z,42.805,6.029,13.3040,4.60116,2470.73,2023-11-11T04:18:50Z
2023-11-11T02:19:26Z,42.805,6.029,13.3040,4.60115,2470.74,2023-11-11T04:21:53Z
2023-11-11T02:22:29Z,42.805,6.029,13.3038,4.60114,2470.707,2023-11-11T04:24:56Z
2023-11-11T02:25:33Z,42.805,6.029,13.3039,4.60114,2470.693,2023-11-11T04:27:59Z
2023-11-11T02:28:36Z,42.805,6.029,13.3037,4.60115,2470.717,2023-11-11T04:31:02Z
2023-11-11T02:31:39Z,42.805,6.029,13.3041,4.60115,2470.717,2023-11-11T04:34:06Z
2023-11-11T02:34:42Z,42.805,6.029,13.3034,4.60114,2470.693,2023-11-11T04:37:09Z
2023-11-11T02:37:45Z,42.805,6.029,13.3040,4.60116,2470.74,2023-11-11T04:40:12Z
2023-11-11T02:40:48Z,42.805,6.029,13.3038,4.60117,2470.754,2023-11-11T04:43:15Z
2023-11-11T02:43:51Z,42.805,6.029,13.3039,4.60114,2470.717,2023-11-11T04:46:18Z
2023-11-11T02:46:54Z,42.805,6.029,13.3043,4.60115,2470.73,2023-11-11T04:49:21Z
2023-11-11T02:49:57Z,42.805,6.029,13.3038,4.60117,2470.707,2023-11-11T04:52:24Z
2023-11-11T02:53:00Z,42.805,6.029,13.3039,4.60114,2470.703,2023-11-11T04:55:27Z
2023-11-11T02:56:03Z,42.805,6.029,13.3040,4.60114,2470.717,2023-11-11T04:58:30Z
2023-11-11T02:59:06Z,42.805,6.029,13.3039,4.60114,2470.74,2023-11-11T05:01:33Z
2023-11-11T03:02:09Z,42.805,6.029,13.3039,4.60116,2470.73,2023-11-11T05:04:36Z
2023-11-11T03:05:13Z,42.805,6.029,13.3040,4.60116,2470.754,2023-11-11T05:07:39Z
2023-11-11T03:08:16Z,42.805,6.029,13.3042,4.60117,2470.763,2023-11-11T05:10:42Z
2023-11-11T03:11:19Z,42.805,6.029,13.3036,4.60115,2470.763,2023-11-11T05:13:46Z
2023-11-11T03:14:22Z,42.805,6.029,13.3036,4.60115,2470.763,2023-11-11T05:16:49Z
2023-11-11T03:17:25Z,42.805,6.029,13.3041,4.60115,2470.754,2023-11-11T05:19:52Z
2023-11-11T03:20:28Z,42.805,6.029,13.3043,4.60114,2470.754,2023-11-11T05:22:55Z
2023-11-11T03:23:31Z,42.805,6.029,13.3040,4.60114,2470.763,2023-11-11T05:25:58Z
2023-11-11T03:26:34Z,42.805,6.029,13.3039,4.60116,2470.763,2023-11-11T05:29:01Z
2023-11-11T03:29:37Z,42.805,6.029,13.3039,4.60114,2470.74,2023-11-11T05:32:04Z
2023-11-11T03:32:40Z,42.805,6.029,13.3038,4.60114,2470.74,2023-11-11T05:35:07Z
2023-11-11T03:35:43Z,42.805,6.029,13.3042,4.60115,2470.777,2023-11-11T05:38:10Z
2023-11-11T03:38:46Z,42.805,6.029,13.3041,4.60114,2470.74,2023-11-11T05:41:13Z
2023-11-11T03:41:50Z,42.805,6.029,13.3041,4.60116,2470.787,2023-11-11T05:44:16Z
2023-11-11T03:44:53Z,42.805,6.029,13.3038,4.60115,2470.8,2023-11-11T05:47:19Z
2023-11-11T03:47:56Z,42.805,6.029,13.3042,4.60114,2470.74,2023-11-11T05:50:23Z
2023-11-11T03:50:59Z,42.805,6.029,13.3041,4.60114,2470.787,2023-11-11T05:53:26Z
2023-11-11T03:54:02Z,42.805,6.029,13.3042,4.60117,2470.8,2023-11-11T05:56:29Z
2023-11-11T03:57:05Z,42.805,6.029,13.3041,4.60114,2470.8,2023-11-11T05:59:32Z
2023-11-11T04:00:08Z,42.805,6.029,13.3041,4.60115,2470.8,2023-11-11T06:02:35Z
2023-11-11T04:03:11Z,42.805,6.029,13.3036,4.60114,2470.787,2023-11-11T06:05:38Z
2023-11-11T04:06:14Z,42.805,6.029,13.3041,4.60114,2470.81,2023-11-11T06:08:41Z
2023-11-11T04:09:17Z,42.805,6.029,13.3039,4.60114,2470.777,2023-11-11T06:11:44Z
2023-11-11T04:12:20Z,42.805,6.029,13.3041,4.60114,2470.8,2023-11-11T06:14:47Z
2023-11-11T04:15:23Z,42.805,6.029,13.3039,4.60116,2470.81,2023-11-11T06:17:50Z
2023-11-11T04:18:26Z,42.805,6.029,13.3039,4.60114,2470.81,2023-11-11T06:20:53Z
2023-11-11T04:21:30Z,42.805,6.029,13.3039,4.60114,2470.81,2023-11-11T06:23:56Z
2023-11-11T04:24:33Z,42.805,6.029,13.3040,4.60116,2470.824,2023-11-11T06:26:59Z
2023-11-11T04:27:36Z,42.805,6.029,13.3039,4.60114,2470.787,2023-11-11T06:30:03Z
2023-11-11T04:30:39Z,42.805,6.029,13.3041,4.60117,2470.833,2023-11-11T06:33:06Z
2023-11-11T04:33:42Z,42.805,6.029,13.3041,4.60115,2470.81,2023-11-11T06:36:09Z
2023-11-11T04:36:45Z,42.805,6.029,13.3041,4.60115,2470.81,2023-11-11T06:39:12Z
2023-11-11T04:39:48Z,42.805,6.029,13.3041,4.60114,2470.847,2023-11-11T06:42:15Z
2023-11-11T04:42:51Z,42.805,6.029,13.3040,4.60113,2470.787,2023-11-11T06:45:18Z
2023-11-11T04:45:54Z,42.805,6.029,13.3041,4.60114,2470.787,2023-11-11T06:48:21Z
2023-11-11T04:48:57Z,42.805,6.029,13.3039,4.60114,2470.8,2023-11-11T06:51:24Z
2023-11-11T04:52:00Z,42.805,6.029,13.3039,4.60113,2470.81,2023-11-11T06:54:27Z
2023-11-11T04:55:03Z,42.805,6.029,13.3041,4.60114,2470.847,2023-11-11T06:57:30Z
2023-11-11T04:58:07Z,42.805,6.029,13.3037,4.60113,2470.81,2023-11-11T07:00:33Z
2023-11-11T05:01:10Z,42.805,6.029,13.3036,4.60113,2470.824,2023-11-11T07:03:36Z
2023-11-11T05:04:13Z,42.805,6.029,13.3041,4.60114,2470.81,2023-11-11T07:06:39Z
2023-11-11T05:07:16Z,42.805,6.029,13.3036,4.60114,2470.81,2023-11-11T07:09:43Z
2023-11-11T05:10:19Z,42.805,6.029,13.3040,4.60113,2470.833,2023-11-11T07:12:46Z
2023-11-11T05:13:22Z,42.805,6.029,13.3042,4.60115,2470.824,2023-11-11T07:15:49Z
2023-11-11T05:16:25Z,42.805,6.029,13.3039,4.60114,2470.871,2023-11-11T07:18:52Z
2023-11-11T05:19:28Z,42.805,6.029,13.3039,4.60115,2470.824,2023-11-11T07:21:55Z
2023-11-11T05:22:31Z,42.805,6.029,13.3039,4.60113,2470.833,2023-11-11T07:24:58Z
2023-11-11T05:25:34Z,42.805,6.029,13.3040,4.60112,2470.833,2023-11-11T07:28:01Z
2023-11-11T05:28:37Z,42.805,6.029,13.3039,4.60115,2470.81,2023-11-11T07:31:04Z
2023-11-11T05:31:41Z,42.805,6.029,13.3039,4.60113,2470.833,2023-11-11T07:34:08Z
2023-11-11T05:34:44Z,42.805,6.029,13.3041,4.60114,2470.81,2023-11-11T07:37:11Z
2023-11-11T05:37:47Z,42.805,6.029,13.3041,4.60116,2470.824,2023-11-11T07:40:14Z
2023-11-11T05:40:50Z,42.805,6.029,13.3039,4.60113,2470.847,2023-11-11T07:43:17Z
2023-11-11T05:43:53Z,42.805,6.029,13.3039,4.60113,2470.847,2023-11-11T07:46:20Z
2023-11-11T05:46:57Z,42.805,6.029,13.3036,4.60113,2470.847,2023-11-11T07:49:23Z
2023-11-11T05:50:00Z,42.805,6.029,13.3038,4.60113,2470.81,2023-11-11T07:52:26Z
2023-11-11T05:53:03Z,42.805,6.029,13.3041,4.60114,2470.847,2023-11-11T07:55:30Z
2023-11-11T05:56:06Z,42.805,6.029,13.3044,4.60113,2470.833,2023-11-11T07:58:33Z
2023-11-11T05:59:09Z,42.805,6.029,13.3039,4.60112,2470.81,2023-11-11T08:01:36Z
2023-11-11T06:02:12Z,42.805,6.029,13.3039,4.60112,2470.824,2023-11-11T08:04:39Z
2023-11-11T06:05:15Z,42.805,6.029,13.3039,4.60111,2470.847,2023-11-11T08:07:42Z
2023-11-11T06:08:18Z,42.805,6.029,13.3040,4.60114,2470.847,2023-11-11T08:10:45Z
2023-11-11T06:11:21Z,42.805,6.029,13.3041,4.60114,2470.833,2023-11-11T08:13:48Z
2023-11-11T06:14:24Z,42.805,6.029,13.3033,4.60113,2470.81,2023-11-11T08:16:51Z
2023-11-11T06:17:27Z,42.805,6.029,13.3041,4.60114,2470.833,2023-11-11T08:19:54Z
2023-11-11T06:20:30Z,42.805,6.029,13.3037,4.60113,2470.796,2023-11-11T08:22:57Z
2023-11-11T06:23:34Z,42.805,6.029,13.3041,4.60114,2470.796,2023-11-11T08:26:00Z
2023-11-11T06:26:37Z,42.805,6.029,13.3038,4.60114,2470.81,2023-11-11T08:29:03Z
2023-11-11T06:29:40Z,42.805,6.029,13.3039,4.60114,2470.81,2023-11-11T08:32:07Z
2023-11-11T06:32:43Z,42.805,6.029,13.3040,4.60113,2470.833,2023-11-11T08:35:10Z
2023-11-11T06:35:46Z,42.805,6.029,13.3040,4.60113,2470.824,2023-11-11T08:38:13Z
2023-11-11T06:38:49Z,42.805,6.029,13.3039,4.60113,2470.857,2023-11-11T08:41:16Z
2023-11-11T06:41:52Z,42.805,6.029,13.3036,4.60112,2470.857,2023-11-11T08:44:19Z
2023-11-11T06:44:55Z,42.805,6.029,13.3040,4.60113,2470.81,2023-11-11T08:47:22Z
2023-11-11T06:47:58Z,42.805,6.029,13.3041,4.60114,2470.81,2023-11-11T08:50:25Z
2023-11-11T06:51:01Z,42.805,6.029,13.3041,4.60113,2470.81,2023-11-11T08:53:28Z
2023-11-11T06:54:04Z,42.805,6.029,13.3042,4.60114,2470.81,2023-11-11T08:56:31Z
2023-11-11T06:57:07Z,42.805,6.029,13.3041,4.60114,2470.81,2023-11-11T08:59:34Z
2023-11-11T07:00:11Z,42.805,6.029,13.3042,4.60114,2470.787,2023-11-11T09:02:37Z
2023-11-11T07:03:14Z,42.805,6.029,13.3038,4.60114,2470.847,2023-11-11T09:05:40Z
2023-11-11T07:06:17Z,42.805,6.029,13.3039,4.60114,2470.824,2023-11-11T09:08:43Z
2023-11-11T07:09:20Z,42.805,6.029,13.3041,4.60114,2470.824,2023-11-11T09:11:47Z
2023-11-11T07:12:23Z,42.805,6.029,13.3039,4.60114,2470.81,2023-11-11T09:14:50Z
2023-11-11T07:15:26Z,42.805,6.029,13.3041,4.60113,2470.787,2023-11-11T09:17:53Z
2023-11-11T07:18:29Z,42.805,6.029,13.3041,4.60114,2470.787,2023-11-11T09:20:56Z
2023-11-11T07:21:32Z,42.805,6.029,13.3040,4.60114,2470.787,2023-11-11T09:23:59Z
2023-11-11T07:24:35Z,42.805,6.029,13.3040,4.60113,2470.824,2023-11-11T09:27:02Z
2023-11-11T07:27:38Z,42.805,6.029,13.3036,4.60113,2470.81,2023-11-11T09:30:05Z
2023-11-11T07:30:41Z,42.805,6.029,13.3038,4.60114,2470.777,2023-11-11T09:33:08Z
2023-11-11T07:33:44Z,42.805,6.029,13.3041,4.60112,2470.8,2023-11-11T09:36:11Z
2023-11-11T07:36:47Z,42.805,6.029,13.3039,4.60114,2470.81,2023-11-11T09:39:14Z
2023-11-11T07:39:50Z,42.805,6.029,13.3039,4.60113,2470.824,2023-11-11T09:42:17Z
2023-11-11T07:42:54Z,42.805,6.029,13.3040,4.60113,2470.81,2023-11-11T09:45:20Z
2023-11-11T07:45:57Z,42.805,6.029,13.3039,4.60113,2470.81,2023-11-11T09:48:24Z
2023-11-11T07:49:00Z,42.805,6.029,13.3043,4.60116,2470.81,2023-11-11T09:51:27Z
2023-11-11T07:52:03Z,42.805,6.029,13.3037,4.60114,2470.787,2023-11-11T09:54:30Z
2023-11-11T07:55:06Z,42.805,6.029,13.3041,4.60116,2470.787,2023-11-11T09:57:33Z
2023-11-11T07:58:09Z,42.805,6.029,13.3041,4.60115,2470.824,2023-11-11T10:00:36Z
2023-11-11T08:01:12Z,42.805,6.029,13.3040,4.60115,2470.787,2023-11-11T10:03:39Z
2023-11-11T08:04:15Z,42.805,6.029,13.3039,4.60115,2470.81,2023-11-11T10:06:42Z
2023-11-11T08:07:18Z,42.805,6.029,13.3042,4.60114,2470.81,2023-11-11T10:09:45Z
2023-11-11T08:10:21Z,42.805,6.029,13.3040,4.60113,2470.763,2023-11-11T10:12:48Z
2023-11-11T08:13:24Z,42.805,6.029,13.3041,4.60114,2470.8,2023-11-11T10:15:51Z
2023-11-11T08:16:28Z,42.805,6.029,13.3039,4.60116,2470.787,2023-11-11T10:18:54Z
2023-11-11T08:19:31Z,42.805,6.029,13.3041,4.60114,2470.763,2023-11-11T10:21:57Z
2023-11-11T08:22:34Z,42.805,6.029,13.3043,4.60113,2470.8,2023-11-11T10:25:00Z
2023-11-11T08:25:37Z,42.805,6.029,13.3041,4.60114,2470.777,2023-11-11T10:28:04Z
2023-11-11T08:28:40Z,42.805,6.029,13.3039,4.60113,2470.8,2023-11-11T10:31:07Z
2023-11-11T08:31:43Z,42.805,6.029,13.3041,4.60115,2470.763,2023-11-11T10:34:10Z
2023-11-11T08:34:46Z,42.805,6.029,13.3040,4.60114,2470.787,2023-11-11T10:37:13Z
2023-11-11T08:37:49Z,42.805,6.029,13.3041,4.60116,2470.777,2023-11-11T10:40:16Z
2023-11-11T08:40:52Z,42.805,6.029,13.3041,4.60112,2470.8,2023-11-11T10:43:19Z
2023-11-11T08:43:55Z,42.805,6.029,13.3041,4.60115,2470.8,2023-11-11T10:46:22Z
2023-11-11T08:46:58Z,42.805,6.029,13.3041,4.60114,2470.74,2023-11-11T10:49:25Z
2023-11-11T08:50:01Z,42.805,6.029,13.3041,4.60115,2470.763,2023-11-11T10:52:28Z
2023-11-11T08:53:04Z,42.805,6.029,13.3038,4.60114,2470.763,2023-11-11T10:55:31Z
2023-11-11T08:56:08Z,42.805,6.029,13.3039,4.60115,2470.763,2023-11-11T10:58:34Z
2023-11-11T08:59:11Z,42.805,6.029,13.3041,4.60115,2470.74,2023-11-11T11:01:38Z
2023-11-11T09:02:14Z,42.805,6.029,13.3042,4.60116,2470.74,2023-11-11T11:04:41Z
2023-11-11T09:05:17Z,42.805,6.029,13.3042,4.60114,2470.754,2023-11-11T11:07:44Z
2023-11-11T09:08:20Z,42.805,6.029,13.3038,4.60117,2470.754,2023-11-11T11:10:47Z
2023-11-11T09:11:23Z,42.805,6.029,13.3040,4.60114,2470.777,2023-11-11T11:13:50Z
2023-11-11T09:14:26Z,42.805,6.029,13.3038,4.60117,2470.787,2023-11-11T11:16:53Z
2023-11-11T09:17:29Z,42.805,6.029,13.3041,4.60113,2470.74,2023-11-11T11:19:56Z
2023-11-11T09:20:32Z,42.805,6.029,13.3040,4.60116,2470.74,2023-11-11T11:22:59Z
2023-11-11T09:23:35Z,42.805,6.029,13.3041,4.60115,2470.754,2023-11-11T11:26:02Z
2023-11-11T09:26:38Z,42.805,6.029,13.3039,4.60113,2470.777,2023-11-11T11:29:05Z
2023-11-11T09:29:42Z,42.805,6.029,13.3039,4.60116,2470.763,2023-11-11T11:32:08Z
2023-11-11T09:32:45Z,42.805,6.029,13.3040,4.60115,2470.74,2023-11-11T11:35:11Z
2023-11-11T09:35:48Z,42.805,6.029,13.3042,4.60116,2470.763,2023-11-11T11:38:15Z
2023-11-11T09:38:51Z,42.805,6.029,13.3040,4.60114,2470.777,2023-11-11T11:41:18Z
2023-11-11T09:41:54Z,42.805,6.029,13.3039,4.60112,2470.717,2023-11-11T11:44:21Z
2023-11-11T09:44:57Z,42.805,6.029,13.3039,4.60112,2470.754,2023-11-11T11:47:24Z
2023-11-11T09:48:00Z,42.805,6.029,13.3037,4.60115,2470.717,2023-11-11T11:50:27Z
2023-11-11T09:51:03Z,42.805,6.029,13.3040,4.60116,2470.74,2023-11-11T11:53:30Z
2023-11-11T09:54:06Z,42.805,6.029,13.3041,4.60114,2470.717,2023-11-11T11:56:33Z
2023-11-11T09:57:09Z,42.805,6.029,13.3040,4.60115,2470.73,2023-11-11T11:59:36Z
2023-11-11T10:00:12Z,42.805,6.029,13.3039,4.60115,2470.717,2023-11-11T12:02:39Z
2023-11-11T10:03:15Z,42.805,6.029,13.3039,4.60113,2470.73,2023-11-11T12:05:42Z
2023-11-11T10:06:19Z,42.805,6.029,13.3038,4.60112,2470.717,2023-11-11T12:08:45Z
2023-11-11T10:09:22Z,42.805,6.029,13.3041,4.60114,2470.717,2023-11-11T12:11:48Z
2023-11-11T10:12:25Z,42.805,6.029,13.3041,4.60113,2470.73,2023-11-11T12:14:52Z
2023-11-11T10:15:28Z,42.805,6.029,13.3040,4.60114,2470.717,2023-11-11T12:17:55Z
2023-11-11T10:18:31Z,42.805,6.029,13.3039,4.60113,2470.73,2023-11-11T12:20:58Z
2023-11-11T10:21:34Z,42.805,6.029,13.3039,4.60112,2470.693,2023-11-11T12:24:01Z
2023-11-11T10:24:37Z,42.805,6.029,13.3037,4.60112,2470.693,2023-11-11T12:27:04Z
2023-11-11T10:27:40Z,42.805,6.029,13.3039,4.60114,2470.717,2023-11-11T12:30:07Z
2023-11-11T10:30:43Z,42.805,6.029,13.3041,4.60112,2470.693,2023-11-11T12:33:10Z
2023-11-11T10:33:46Z,42.805,6.029,13.3040,4.60114,2470.707,2023-11-11T12:36:13Z
2023-11-11T10:36:49Z,42.805,6.029,13.3035,4.60114,2470.73,2023-11-11T12:39:16Z
2023-11-11T10:39:53Z,42.805,6.029,13.3040,4.60117,2470.707,2023-11-11T12:42:19Z
2023-11-11T10:42:56Z,42.805,6.029,13.3039,4.60116,2470.693,2023-11-11T12:45:22Z
2023-11-11T10:45:59Z,42.805,6.029,13.3039,4.60116,2470.693,2023-11-11T12:48:26Z
2023-11-11T10:49:02Z,42.805,6.029,13.3036,4.60114,2470.717,2023-11-11T12:51:29Z
2023-11-11T10:52:05Z,42.805,6.029,13.3042,4.60114,2470.717,2023-11-11T12:54:32Z
2023-11-11T10:55:08Z,42.805,6.029,13.3041,4.60115,2470.717,2023-11-11T12:57:35Z
2023-11-11T10:58:11Z,42.805,6.029,13.3037,4.60119,2470.707,2023-11-11T13:00:38Z
2023-11-11T11:01:14Z,42.805,6.029,13.3041,4.60116,2470.67,2023-11-11T13:03:41Z
2023-11-11T11:04:17Z,42.805,6.029,13.3038,4.60115,2470.693,2023-11-11T13:06:44Z
2023-11-11T11:07:20Z,42.805,6.029,13.3040,4.60117,2470.693,2023-11-11T13:09:47Z
2023-11-11T11:10:23Z,42.805,6.029,13.3038,4.60117,2470.67,2023-11-11T13:12:50Z
2023-11-11T11:13:26Z,42.805,6.029,13.3043,4.60114,2470.707,2023-11-11T13:15:53Z
2023-11-11T11:16:30Z,42.805,6.029,13.3036,4.60114,2470.693,2023-11-11T13:18:56Z
2023-11-11T11:19:33Z,42.805,6.029,13.3042,4.60117,2470.67,2023-11-11T13:21:59Z
2023-11-11T11:22:36Z,42.805,6.029,13.3036,4.60116,2470.693,2023-11-11T13:25:03Z
2023-11-11T11:25:39Z,42.805,6.029,13.3043,4.60114,2470.693,2023-11-11T13:28:06Z
2023-11-11T11:28:42Z,42.805,6.029,13.3041,4.60118,2470.67,2023-11-11T13:31:09Z
2023-11-11T11:31:44Z,42.805,6.029,13.3037,4.60117,2470.693,2023-11-11T13:34:11Z
2023-11-11T11:34:47Z,42.805,6.029,13.3039,4.60117,2470.693,2023-11-11T13:37:14Z
2023-11-11T11:37:50Z,42.805,6.029,13.3038,4.60114,2470.67,2023-11-11T13:40:17Z
2023-11-11T11:40:53Z,42.805,6.029,13.3038,4.60113,2470.693,2023-11-11T13:43:20Z
2023-11-11T11:43:56Z,42.805,6.029,13.3040,4.60114,2470.707,2023-11-11T13:46:23Z
2023-11-11T11:46:59Z,42.805,6.029,13.3043,4.60114,2470.693,2023-11-11T13:49:26Z
2023-11-11T11:50:03Z,42.805,6.029,13.3036,4.60114,2470.693,2023-11-11T13:52:29Z
2023-11-11T11:53:06Z,42.805,6.029,13.3038,4.60116,2470.717,2023-11-11T13:55:32Z
2023-11-11T11:56:09Z,42.805,6.029,13.3039,4.60115,2470.707,2023-11-11T13:58:36Z
2023-11-11T11:59:12Z,42.805,6.029,13.3039,4.60113,2470.684,2023-11-11T14:01:39Z
2023-11-11T12:02:15Z,42.805,6.029,13.3041,4.60117,2470.693,2023-11-11T14:04:42Z
2023-11-11T12:05:18Z,42.805,6.029,13.3039,4.60115,2470.67,2023-11-11T14:07:45Z
2023-11-11T12:08:21Z,42.805,6.029,13.3041,4.60114,2470.684,2023-11-11T14:10:48Z
2023-11-11T12:11:24Z,42.805,6.029,13.3041,4.60114,2470.646,2023-11-11T14:13:51Z
2023-11-11T12:14:27Z,42.805,6.029,13.3043,4.60114,2470.646,2023-11-11T14:16:54Z
2023-11-11T12:17:30Z,42.805,6.029,13.3040,4.60114,2470.67,2023-11-11T14:19:57Z
2023-11-11T12:20:33Z,42.805,6.029,13.3037,4.60115,2470.67,2023-11-11T14:23:00Z
2023-11-11T12:23:36Z,42.805,6.029,13.3041,4.60114,2470.707,2023-11-11T14:26:03Z
2023-11-11T12:26:40Z,42.805,6.029,13.3042,4.60115,2470.684,2023-11-11T14:29:06Z
2023-11-11T12:29:43Z,42.805,6.029,13.3041,4.60117,2470.707,2023-11-11T14:32:09Z
2023-11-11T12:32:46Z,42.805,6.029,13.3041,4.60119,2470.693,2023-11-11T14:35:13Z
2023-11-11T12:35:49Z,42.805,6.029,13.3039,4.60114,2470.646,2023-11-11T14:38:16Z
2023-11-11T12:38:52Z,42.805,6.029,13.3041,4.60115,2470.693,2023-11-11T14:41:19Z
2023-11-11T12:41:55Z,42.805,6.029,13.3038,4.60114,2470.693,2023-11-11T14:44:22Z
2023-11-11T12:44:58Z,42.805,6.029,13.3041,4.60114,2470.707,2023-11-11T14:47:25Z
2023-11-11T12:48:01Z,42.805,6.029,13.3038,4.60115,2470.67,2023-11-11T14:50:28Z
2023-11-11T12:51:04Z,42.805,6.029,13.3041,4.60114,2470.624,2023-11-11T14:53:31Z
2023-11-11T12:54:07Z,42.805,6.029,13.3042,4.60114,2470.661,2023-11-11T14:56:34Z
2023-11-11T12:57:10Z,42.805,6.029,13.3037,4.60116,2470.646,2023-11-11T14:59:37Z
2023-11-11T13:00:13Z,42.805,6.029,13.3041,4.60114,2470.661,2023-11-11T15:02:40Z
2023-11-11T13:03:17Z,42.805,6.029,13.3039,4.60115,2470.646,2023-11-11T15:05:43Z
2023-11-11T13:06:20Z,42.805,6.029,13.3041,4.60113,2470.67,2023-11-11T15:08:47Z
2023-11-11T13:09:23Z,42.805,6.029,13.3042,4.60114,2470.67,2023-11-11T15:11:50Z
2023-11-11T13:12:26Z,42.805,6.029,13.3040,4.60114,2470.67,2023-11-11T15:14:53Z
2023-11-11T13:15:29Z,42.805,6.029,13.3046,4.60115,2470.67,2023-11-11T15:17:56Z
2023-11-11T13:18:32Z,42.805,6.029,13.3041,4.60117,2470.67,2023-11-11T15:20:59Z
2023-11-11T13:21:35Z,42.805,6.029,13.3041,4.60115,2470.684,2023-11-11T15:24:02Z
2023-11-11T13:24:38Z,42.805,6.029,13.3039,4.60114,2470.646,2023-11-11T15:27:05Z
2023-11-11T13:27:41Z,42.805,6.029,13.3041,4.60114,2470.693,2023-11-11T15:30:08Z
2023-11-11T13:30:43Z,42.805,6.029,13.3037,4.60114,2470.693,2023-11-11T15:33:10Z
2023-11-11T13:33:46Z,42.805,6.029,13.3041,4.60114,2470.717,2023-11-11T15:36:13Z
2023-11-11T13:36:49Z,42.805,6.029,13.3040,4.60114,2470.707,2023-11-11T15:39:16Z
2023-11-11T13:39:52Z,42.805,6.029,13.3041,4.60114,2470.693,2023-11-11T15:42:19Z
2023-11-11T13:42:55Z,42.805,6.029,13.3043,4.60114,2470.67,2023-11-11T15:45:22Z
2023-11-11T13:45:59Z,42.805,6.029,13.3043,4.60114,2470.684,2023-11-11T15:48:25Z
2023-11-11T13:49:02Z,42.805,6.029,13.3042,4.60115,2470.684,2023-11-11T15:51:29Z
2023-11-11T13:52:05Z,42.805,6.029,13.3044,4.60113,2470.67,2023-11-11T15:54:32Z
2023-11-11T13:55:08Z,42.805,6.029,13.3041,4.60114,2470.707,2023-11-11T15:57:35Z
2023-11-11T13:58:11Z,42.805,6.029,13.3037,4.60113,2470.707,2023-11-11T16:00:38Z
2023-11-11T14:01:14Z,42.805,6.029,13.3039,4.60116,2470.661,2023-11-11T16:03:41Z
2023-11-11T14:04:17Z,42.805,6.029,13.3041,4.60115,2470.693,2023-11-11T16:06:44Z
2023-11-11T14:07:20Z,42.805,6.029,13.3041,4.60114,2470.707,2023-11-11T16:09:47Z
2023-11-11T14:10:23Z,42.805,6.029,13.3038,4.60115,2470.707,2023-11-11T16:12:50Z
2023-11-11T14:13:26Z,42.805,6.029,13.3041,4.60115,2470.707,2023-11-11T16:15:53Z
2023-11-11T14:16:29Z,42.805,6.029,13.3041,4.60114,2470.693,2023-11-11T16:18:56Z
2023-11-11T14:19:33Z,42.805,6.029,13.3037,4.60113,2470.717,2023-11-11T16:21:59Z
2023-11-11T14:22:36Z,42.805,6.029,13.3044,4.60114,2470.656,2023-11-11T16:25:02Z
2023-11-11T14:25:39Z,42.805,6.029,13.3039,4.60115,2470.717,2023-11-11T16:28:06Z
2023-11-11T14:28:42Z,42.805,6.029,13.3039,4.60115,2470.707,2023-11-11T16:31:09Z
2023-11-11T14:31:45Z,42.805,6.029,13.3039,4.60115,2470.717,2023-11-11T16:34:12Z
2023-11-11T14:34:48Z,42.805,6.029,13.3039,4.60114,2470.707,2023-11-11T16:37:15Z
2023-11-11T14:37:51Z,42.805,6.029,13.3043,4.60115,2470.74,2023-11-11T16:40:18Z
2023-11-11T14:40:54Z,42.805,6.029,13.3039,4.60114,2470.717,2023-11-11T16:43:21Z
2023-11-11T14:43:57Z,42.805,6.029,13.3036,4.60114,2470.717,2023-11-11T16:46:24Z
2023-11-11T14:47:00Z,42.805,6.029,13.3040,4.60113,2470.74,2023-11-11T16:49:27Z
2023-11-11T14:50:03Z,42.805,6.029,13.3040,4.60114,2470.74,2023-11-11T16:52:30Z
2023-11-11T14:53:06Z,42.805,6.029,13.3038,4.60114,2470.73,2023-11-11T16:55:33Z
2023-11-11T14:56:10Z,42.805,6.029,13.3038,4.60114,2470.74,2023-11-11T16:58:36Z
2023-11-11T14:59:13Z,42.805,6.029,13.3042,4.60114,2470.717,2023-11-11T17:01:40Z
2023-11-11T15:02:16Z,42.805,6.029,13.3041,4.60113,2470.693,2023-11-11T17:04:43Z